Temp
3 3 3 4 5 5 5 6 5 6 7 7 2 6 7 8 9 10 9 9 11 11 11 12 12 12 12 14 13 12 13 10 10 12 12 13 12 11 10 9 9 6 6 9
2 3 3 4 5 5 5 5 4 5 6 6 6 7 8 8 9 9 8 8 10 11 11 11 12 11 11 12 12 12 10 8 8 10 11 12 12 11 9 8 7 8 8 9
3 3 4 4 4 5 5 4 2 1 2 6 7 7 8 7 8 9 8 8 8 10 10 11 11 10 10 9 10 11 11 7 9 11 10 8 9 9 9 8 5 7 7 8
3 3 4 5 4 5 5 4 2 2 3 4 7 7 7 8 6 7 7 7 8 9 8 9 8 8 8 8 9 8 8 6 6 6 8 8 8 7 8 8 7 7 7 8
3 3 4 4 5 5 5 2 1 1 3 4 5 5 5 6 5 5 5 6 7 8 7 9 8 8 7 8 8 7 6 4 3 5 7 7 8 7 7 8 8 8 7 7
3 4 4 5 5 5 2 2 4 5 2 3 4 4 3 5 4 3 5 6 5 6 6 7 7 8 8 8 7 6 6 4 5 5 5 6 5 6 6 7 7 7 6 7
1 2 3 3 4 4 3 1 2 2 1 3 4 4 4 4 5 3 3 4 3 4 5 7 7 6 5 6 6 6 6 5 4 4 4 4 7 7 7 8 8 7 8 8
1 1 1 1 2 3 3 1 1 1 1 2 3 4 3 3 3 2 2 3 4 5 4 1 2 2 3 2 4 6 5 3 2 3 4 5 7 6 7 6 6 6 7 6
-0 -1 0 1 1 2 2 2 1 2 2 1 2 2 2 2 1 1 0 3 4 5 1 1 2 3 4 4 6 6 4 4 4 2 3 2 5 7 8 7 4 5 6 5
0 0 1 2 2 3 3 3 3 3 -1 -0 2 1 1 2 1 1 -0 -0 1 2 0 1 1 3 5 4 4 4 4 3 3 2 2 3 5 6 8 5 4 6 7 6
1 2 2 2 3 3 5 4 4 5 1 1 3 3 2 2 2 2 2 2 1 -1 1 1 1 1 3 3 3 4 3 3 1 1 -0 2 6 6 5 5 6 7 6 7
1 1 2 2 3 3 4 4 4 4 3 0 2 3 4 4 4 3 2 2 1 2 -0 -0 1 2 0 3 2 4 3 3 2 3 2 4 5 6 7 8 7 7 7 6
0 1 2 2 3 3 4 3 3 3 2 2 2 2 3 4 5 5 3 2 3 3 3 -1 -0 2 1 1 1 3 4 4 2 3 3 4 6 6 6 6 7 7 6 6
-0 -0 1 1 2 2 3 4 3 3 3 -1 0 2 2 3 4 5 5 4 4 3 4 -1 -4 -1 -0 -2 -0 -0 1 3 2 1 2 3 5 5 5 6 6 5 5 5
-1 -0 -0 0 1 2 3 3 3 3 3 -2 1 1 1 2 3 4 4 4 4 3 -0 -4 -3 -2 -2 -4 -3 -2 1 1 0 1 3 4 4 4 4 4 4 4 4 4
-0 0 0 1 1 2 3 3 2 2 2 2 -3 0 0 1 2 3 3 3 3 2 1 -3 -0 1 1 -4 -3 1 4 4 4 3 3 4 4 3 3 3 3 4 4 4
-0 -0 0 1 2 2 1 -2 -0 2 3 2 -5 -4 -0 0 1 0 0 1 1 1 -0 -1 -1 0 0 -5 -1 2 3 3 3 3 3 2 2 2 2 3 3 3 3 3
-1 -1 -1 0 0 0 -0 -1 -0 1 1 1 -5 -2 -2 0 0 -1 0 -0 0 -1 -1 -2 -3 -1 -3 -4 -1 2 2 2 1 2 1 2 2 2 2 2 2 2 2 2
-1 -1 -1 -1 -0 -1 -2 -1 -0 1 0 -4 -3 -4 -4 -1 -3 -2 -1 -0 -7 -3 -3 -4 -3 -5 -3 -1 -0 1 2 1 1 2 2 1 1 1 1 1 1 0 1 1
-2 -1 -1 -3 -3 -3 -2 -2 -1 -1 -2 -2 -4 -3 -4 -1 -3 -4 -3 -2 -5 -5 -3 -3 -4 -3 -0 1 1 1 1 1 1 1 1 1 1 1 1 0 -0 -1 -1 0
-2 -2 -3 -3 -3 -3 -2 -3 -3 -4 -4 -3 -3 -2 -3 -1 -4 -3 -2 -5 -4 -2 -4 -3 -2 -2 -1 0 -0 0 0 1 1 1 1 2 2 2 1 -0 -1 -1 -1 -1
-2 -2 -4 -3 -3 -2 -4 -4 -3 -3 -3 -4 -4 -2 -1 -1 -0 -3 -2 -1 -2 -1 -3 -1 -2 -2 -0 -0 -1 -1 -0 0 1 1 1 1 1 2 1 2 2 1 1 -0
-2 -3 -3 -3 -3 -5 -4 -5 -3 -5 -3 -2 -2 -4 -0 -1 -0 -3 -3 -2 -3 -1 -4 -2 -0 0 -1 -1 -2 -3 -3 -2 -1 1 1 2 2 3 2 2 2 2 1 2
-2 -2 -4 -7 -4 -4 -5 -4 -7 -1 -1 -0 0 -1 -2 -1 -2 -3 -1 -2 -2 -3 -2 0 -2 -1 -1 -2 -3 -3 -3 -3 -3 -2 -1 -0 1 2 3 3 3 2 2 1
-3 -2 -6 -5 -3 -3 -3 -2 -1 -0 -0 1 -1 -2 -1 -3 -2 -2 -2 -3 -3 -1 -1 -1 1 -0 -1 -2 -3 -3 -3 -2 -3 -3 -3 -2 -1 -1 -1 0 1 -0 0 -0
-3 -4 -5 -3 -5 -7 -3 -3 -0 1 0 0 0 -3 -3 -1 -1 -2 -3 -1 -2 -1 -2 0 -0 -0 -1 -2 -3 -4 -4 -4 -4 -4 -4 -3 -2 -2 -2 -2 -2 -1 -1 -2
-3 -4 -2 -2 -2 -2 -3 -2 -1 -1 -0 -5 -3 -2 -1 -1 -1 -0 -1 -3 -4 -2 -0 -0 -1 -2 -2 -3 -3 -3 -4 -5 -5 -5 -5 -4 -4 -3 -3 -3 -3 -3 -4 -4
Height
1318 1327 1334 1344 1355 1365 1376 1383 1382 1385 1395 1407 1401 1405 1407 1414 1422 1427 1428 1432 1431 1430 1432 1437 1446 1444 1441 1439 1446 1456 1455 1470 1479 1472 1467 1463 1465 1470 1479 1496 1498 1511 1510 1498
1311 1318 1326 1337 1345 1354 1366 1368 1381 1377 1388 1387 1389 1399 1404 1410 1415 1416 1424 1429 1431 1428 1428 1436 1436 1440 1439 1439 1441 1444 1455 1470 1485 1481 1474 1468 1466 1470 1474 1482 1491 1495 1503 1497
1301 1309 1318 1327 1336 1347 1360 1359 1364 1377 1379 1377 1381 1392 1396 1404 1407 1413 1416 1422 1434 1429 1429 1427 1430 1440 1440 1442 1441 1443 1444 1460 1461 1464 1464 1468 1474 1472 1474 1479 1499 1493 1493 1492
1294 1302 1310 1320 1327 1340 1349 1345 1358 1354 1368 1373 1372 1386 1392 1397 1406 1410 1413 1423 1424 1423 1430 1431 1436 1440 1445 1444 1442 1444 1447 1462 1469 1470 1467 1466 1468 1473 1474 1476 1481 1488 1489 1486
1288 1297 1305 1313 1323 1332 1339 1337 1346 1352 1359 1367 1375 1383 1390 1394 1404 1406 1411 1413 1416 1420 1425 1421 1426 1431 1437 1437 1445 1444 1447 1468 1470 1475 1470 1470 1471 1474 1473 1474 1476 1477 1481 1479
1282 1286 1293 1306 1311 1317 1323 1330 1338 1345 1358 1364 1372 1376 1385 1387 1394 1404 1404 1408 1411 1416 1421 1421 1425 1426 1429 1431 1438 1443 1446 1456 1464 1474 1473 1474 1477 1468 1470 1471 1469 1470 1480 1472
1280 1285 1293 1301 1304 1313 1316 1328 1337 1347 1361 1360 1363 1370 1380 1387 1390 1397 1405 1408 1411 1418 1419 1422 1429 1431 1433 1435 1437 1439 1448 1452 1463 1472 1478 1484 1456 1456 1458 1459 1460 1463 1465 1465
1288 1295 1301 1306 1310 1316 1322 1328 1333 1337 1354 1358 1366 1366 1377 1384 1388 1397 1402 1407 1408 1414 1418 1435 1441 1444 1440 1445 1443 1443 1445 1459 1469 1471 1475 1467 1454 1456 1457 1458 1462 1459 1463 1465
1302 1306 1310 1314 1311 1318 1324 1329 1332 1339 1342 1358 1361 1369 1372 1379 1388 1398 1405 1409 1413 1415 1426 1433 1435 1438 1434 1441 1439 1439 1444 1444 1456 1475 1477 1480 1454 1450 1448 1453 1469 1456 1457 1460
1312 1315 1319 1320 1323 1327 1329 1330 1333 1343 1347 1362 1365 1367 1376 1381 1388 1398 1405 1411 1415 1417 1423 1431 1437 1434 1427 1433 1433 1439 1446 1455 1457 1468 1472 1461 1449 1447 1450 1463 1458 1450 1452 1454
1320 1322 1324 1327 1332 1334 1337 1342 1345 1344 1354 1366 1370 1370 1376 1382 1388 1391 1401 1411 1417 1420 1423 1428 1434 1432 1430 1430 1431 1431 1438 1451 1461 1468 1480 1470 1441 1447 1451 1446 1443 1447 1449 1451
1327 1329 1332 1334 1337 1338 1340 1341 1343 1348 1355 1370 1374 1377 1377 1380 1386 1387 1394 1395 1401 1405 1417 1425 1425 1429 1433 1428 1438 1430 1438 1432 1441 1442 1444 1436 1437 1439 1439 1441 1441 1443 1446 1449
1335 1335 1336 1339 1341 1343 1345 1347 1351 1355 1365 1376 1378 1378 1381 1385 1385 1388 1391 1398 1403 1400 1404 1414 1421 1424 1428 1431 1433 1430 1425 1427 1434 1434 1431 1432 1435 1437 1439 1439 1439 1440 1443 1445
1342 1343 1343 1345 1347 1350 1352 1352 1356 1361 1365 1375 1385 1386 1387 1388 1388 1391 1391 1397 1401 1400 1404 1411 1421 1428 1426 1433 1434 1431 1427 1427 1429 1432 1430 1433 1433 1435 1437 1437 1437 1439 1442 1442
1348 1350 1351 1351 1352 1354 1356 1357 1361 1363 1367 1377 1385 1387 1389 1392 1392 1389 1392 1399 1399 1403 1410 1416 1424 1423 1428 1432 1432 1431 1423 1426 1431 1432 1427 1429 1430 1432 1435 1436 1438 1439 1440 1438
1353 1353 1353 1353 1355 1357 1359 1360 1365 1365 1365 1372 1387 1394 1398 1393 1391 1389 1395 1401 1406 1405 1410 1418 1421 1423 1427 1436 1433 1417 1417 1421 1419 1420 1424 1424 1423 1428 1431 1432 1432 1432 1432 1430
1357 1358 1359 1360 1360 1360 1362 1369 1370 1369 1369 1375 1389 1395 1396 1399 1397 1395 1400 1405 1406 1409 1416 1420 1422 1423 1424 1429 1420 1409 1415 1414 1414 1417 1419 1414 1417 1419 1422 1423 1424 1425 1424 1424
1365 1366 1367 1368 1368 1369 1371 1373 1376 1376 1374 1378 1390 1396 1398 1398 1398 1403 1405 1407 1410 1414 1417 1421 1423 1424 1423 1423 1403 1404 1403 1405 1407 1406 1407 1406 1412 1415 1415 1417 1419 1418 1416 1416
1369 1371 1373 1374 1375 1376 1379 1379 1379 1378 1379 1383 1389 1394 1401 1397 1400 1404 1407 1408 1415 1416 1418 1422 1424 1424 1420 1403 1402 1400 1400 1402 1402 1402 1402 1404 1405 1407 1409 1411 1410 1408 1407 1407
1373 1375 1375 1378 1381 1383 1383 1385 1384 1383 1386 1388 1390 1390 1396 1398 1403 1411 1415 1414 1416 1421 1418 1421 1423 1414 1402 1401 1399 1397 1398 1398 1397 1398 1397 1398 1400 1402 1403 1404 1404 1402 1400 1400
1375 1376 1380 1382 1382 1382 1382 1383 1385 1386 1387 1386 1391 1394 1399 1404 1408 1410 1410 1411 1411 1415 1418 1419 1416 1408 1400 1398 1397 1397 1396 1393 1391 1389 1390 1394 1396 1396 1398 1398 1395 1391 1391 1392
1378 1378 1382 1383 1384 1384 1386 1388 1389 1388 1390 1391 1394 1396 1398 1401 1402 1404 1408 1407 1412 1410 1411 1412 1409 1400 1398 1398 1396 1395 1393 1390 1386 1381 1384 1388 1390 1391 1392 1392 1391 1390 1389 1390
1380 1381 1384 1386 1388 1392 1390 1396 1390 1394 1389 1391 1393 1396 1397 1400 1401 1404 1407 1409 1413 1407 1414 1409 1399 1396 1396 1395 1394 1392 1390 1388 1386 1384 1383 1385 1386 1386 1387 1387 1386 1388 1387 1388
1382 1384 1388 1393 1392 1391 1390 1389 1390 1387 1387 1388 1391 1394 1396 1400 1402 1404 1406 1407 1408 1412 1408 1396 1397 1396 1395 1395 1394 1392 1391 1389 1387 1386 1385 1384 1384 1385 1385 1386 1386 1388 1389 1391
1385 1387 1394 1391 1388 1387 1387 1387 1387 1388 1389 1390 1392 1395 1397 1400 1403 1404 1406 1410 1411 1403 1400 1396 1393 1395 1396 1396 1395 1393 1392 1391 1389 1388 1387 1386 1386 1385 1386 1387 1388 1390 1392 1393
1387 1389 1390 1389 1389 1390 1389 1389 1390 1390 1391 1392 1393 1396 1400 1399 1399 1402 1405 1402 1402 1397 1394 1392 1393 1394 1396 1396 1396 1394 1394 1392 1391 1390 1389 1388 1389 1389 1389 1390 1391 1393 1394 1396
1388 1388 1388 1388 1389 1389 1390 1391 1391 1391 1392 1395 1395 1397 1395 1396 1395 1395 1395 1399 1395 1392 1392 1393 1394 1395 1395 1396 1396 1395 1394 1393 1393 1391 1391 1391 1391 1391 1391 1392 1393 1394 1395 1396
Wind_Speed
43 43 43 41 42 42 40 38 11 29 47 14 3 8 9 7 8 17 4 2 3 6 9 12 14 11 9 19 17 15 11 4 4 5 5 3 4 8 8 5 6 2 3 4
43 43 45 47 47 46 46 14 20 29 50 17 13 5 9 13 12 12 9 5 9 6 4 6 12 9 2 6 12 15 9 5 3 5 4 3 3 2 4 5 3 6 5 4
41 42 45 47 47 48 47 14 5 7 16 17 17 12 19 9 11 11 7 8 6 3 6 3 4 4 1 0 4 10 12 4 7 10 3 5 5 4 4 5 3 6 4 2
41 41 46 48 44 48 52 12 5 9 9 16 19 18 10 17 8 5 15 8 11 6 6 5 5 4 2 5 7 4 5 5 3 3 3 2 4 9 7 4 7 6 5 6
38 40 45 45 46 46 44 15 6 6 5 15 16 17 14 20 7 9 11 7 16 14 7 13 13 11 5 6 2 3 0 4 4 3 3 5 1 6 6 6 5 5 6 11
34 42 42 44 48 56 16 15 19 15 6 12 15 12 8 13 16 5 12 9 7 9 6 6 7 6 8 8 7 3 4 6 4 4 4 6 7 10 10 6 6 8 8 10
33 35 34 36 43 45 19 24 19 7 3 10 13 15 12 19 9 8 15 13 7 8 21 20 12 19 18 11 7 4 3 4 3 3 5 4 5 4 8 9 7 7 3 3
32 30 26 28 27 27 30 22 12 7 4 7 12 20 13 15 16 7 8 8 9 23 15 4 3 3 2 1 1 4 5 4 4 5 4 6 5 6 6 7 7 7 6 7
32 31 26 26 24 20 20 14 13 9 8 2 20 14 22 10 5 3 6 19 27 18 3 3 4 5 4 5 6 5 5 6 4 3 5 9 5 3 13 7 5 8 11 7
22 21 23 22 19 15 17 16 15 12 9 4 17 5 6 12 6 5 6 7 4 6 2 2 3 3 3 7 10 6 4 2 6 4 2 6 6 7 8 6 6 16 17 16
22 20 19 18 18 15 16 16 21 17 9 11 11 16 9 11 7 6 16 8 1 2 2 3 3 2 3 2 4 6 7 7 4 3 3 9 11 7 9 7 9 18 16 16
15 14 15 17 18 18 17 18 16 26 16 20 19 15 17 16 10 21 12 6 6 8 4 1 3 2 2 4 3 2 4 6 6 8 7 4 5 3 11 12 14 15 21 15
18 17 14 12 12 13 21 25 28 36 32 20 18 20 15 13 9 24 9 3 5 8 7 4 2 3 2 3 3 2 2 4 4 3 2 4 10 8 7 8 10 10 13 16
19 18 18 17 16 15 15 23 16 20 11 5 6 14 17 12 16 13 9 17 14 15 10 5 3 3 1 2 2 3 4 4 3 1 3 5 12 10 8 7 7 10 10 8
17 18 18 18 18 16 16 18 17 11 6 6 7 17 13 9 11 16 16 15 17 10 4 4 1 3 3 2 2 3 6 5 3 5 9 7 8 6 4 7 7 12 18 21
13 14 14 14 16 20 14 8 15 17 17 8 3 7 8 12 10 12 11 11 10 7 6 2 3 4 4 3 3 4 13 18 22 14 18 24 29 25 22 26 32 32 32 26
12 13 13 12 8 5 9 7 8 9 9 6 3 2 5 11 13 15 14 10 8 5 4 2 3 2 4 2 7 14 16 20 24 28 27 29 31 24 25 21 18 18 17 19
14 14 14 16 19 19 16 13 6 5 8 7 3 1 3 4 4 4 5 5 5 4 4 3 2 3 2 3 11 17 21 21 21 26 29 35 31 28 25 28 28 31 32 29
12 12 12 10 6 7 7 7 7 8 7 4 2 3 3 4 5 5 4 3 3 2 2 2 3 2 4 8 11 17 20 16 22 21 20 22 30 31 31 29 26 22 22 21
9 9 4 4 5 7 3 2 2 3 3 3 3 3 3 5 3 1 2 1 2 2 3 5 2 4 19 22 25 25 25 26 23 24 25 21 19 22 21 14 16 24 25 26
5 3 4 7 3 3 3 3 4 3 3 3 3 3 4 5 3 3 2 2 2 1 3 3 2 3 2 5 3 4 7 11 15 23 26 25 20 13 12 22 28 20 15 18
4 8 10 4 3 4 4 2 1 2 1 3 4 5 3 4 3 4 2 2 2 2 7 2 2 3 1 5 6 9 8 10 9 4 15 16 18 20 20 19 16 9 6 9
7 4 4 3 4 5 3 1 2 1 3 7 6 2 3 3 2 4 2 2 3 4 2 3 3 0 4 9 8 7 8 7 7 3 4 9 11 12 11 11 11 11 10 8
3 3 4 3 0 1 3 2 3 0 2 12 12 5 4 3 2 2 2 2 2 1 2 3 1 0 4 5 5 7 10 11 9 7 4 2 5 6 7 7 10 10 8 10
3 2 2 3 3 1 3 3 2 5 7 7 6 4 3 1 2 1 2 2 2 3 3 2 5 1 1 3 4 5 7 8 7 6 5 4 2 2 6 8 10 11 11 13
3 1 1 1 2 3 3 3 2 5 4 5 3 2 2 2 2 3 5 3 4 3 2 2 4 1 3 3 4 3 4 6 6 5 3 2 2 3 7 8 9 11 11 13
1 1 2 1 0 2 2 1 1 5 5 1 2 2 4 1 2 3 3 3 2 2 3 2 3 2 3 3 4 4 3 3 4 4 3 2 3 2 3 6 8 8 9 10
Wind_Direction
219 217 211 212 211 204 198 205 202 178 188 206 137 212 154 173 197 204 129 305 239 175 163 187 196 216 205 195 165 192 196 158 205 225 305 232 161 193 159 161 208 244 155 281
215 215 211 209 204 202 195 198 190 181 180 207 202 177 171 174 175 189 152 194 225 206 178 168 193 204 273 208 169 174 168 200 114 340 339 321 168 127 114 103 56 183 160 221
216 213 208 207 202 201 197 186 135 156 205 210 195 208 214 186 176 198 147 164 251 164 198 78 184 159 26 162 127 161 140 116 188 214 187 140 157 139 127 126 139 156 208 201
209 207 211 205 204 199 197 191 176 161 183 200 191 189 181 198 167 187 156 191 191 174 186 178 193 124 152 358 145 87 123 134 100 33 71 85 126 156 150 127 148 156 179 244
206 207 201 201 198 202 192 175 152 122 166 170 177 181 200 187 149 159 180 199 184 188 180 192 188 159 181 179 211 126 248 137 114 35 13 51 193 174 165 169 178 195 200 250
184 190 183 191 201 190 172 165 174 158 143 170 174 187 162 178 145 354 170 166 134 140 158 122 75 100 139 146 142 147 120 131 129 169 97 40 305 186 185 186 189 161 193 223
113 124 146 167 182 182 178 143 138 123 158 170 178 154 163 154 154 131 138 136 113 171 114 106 82 57 51 61 54 66 96 89 68 133 92 198 238 169 181 188 184 200 226 268
99 99 104 118 128 158 153 131 123 121 114 125 157 145 140 127 115 105 127 156 164 141 108 80 84 2 73 98 205 132 154 138 132 150 197 320 281 219 185 169 219 196 188 173
101 99 92 96 93 98 120 114 101 107 114 22 130 121 138 130 115 84 99 132 148 147 89 106 149 175 145 176 162 126 80 104 128 156 168 202 238 194 138 91 266 186 165 157
95 99 111 113 116 128 123 114 132 124 95 133 140 122 142 136 108 102 122 139 129 94 114 109 152 180 196 160 160 155 100 39 169 160 193 283 215 163 138 164 229 182 178 174
107 106 112 119 121 134 149 128 140 147 94 113 171 155 139 138 157 147 159 115 188 118 113 136 172 140 217 97 165 168 153 154 172 127 127 254 174 186 207 207 172 178 189 191
115 122 118 114 118 112 142 131 126 124 107 103 117 124 165 166 176 141 160 154 144 156 98 152 113 153 157 164 205 143 183 177 174 176 202 223 219 255 213 224 184 206 211 209
93 97 111 128 124 112 122 116 116 117 106 91 93 70 96 157 156 154 122 139 141 123 126 152 137 131 128 144 245 152 225 155 177 116 182 212 227 226 196 208 229 223 196 199
92 85 91 105 110 109 126 123 123 119 104 94 71 96 84 83 152 146 152 135 129 118 105 89 109 117 111 184 194 187 193 125 150 297 287 328 262 238 237 242 209 189 187 198
99 89 88 96 99 104 116 112 102 94 115 136 110 91 79 94 107 120 129 144 132 109 76 63 138 128 102 354 35 246 190 167 150 228 198 223 256 153 282 215 226 264 277 277
96 83 80 92 104 113 103 80 76 90 102 107 73 87 113 90 110 114 111 111 102 88 95 116 131 158 150 166 232 214 237 254 256 254 267 269 274 274 256 265 273 269 270 269
100 87 74 71 91 84 61 79 47 65 88 85 53 23 87 115 98 95 94 87 88 80 94 104 132 170 179 174 250 246 254 259 264 267 267 263 262 259 269 264 261 249 254 268
120 110 99 91 88 94 88 83 65 70 83 79 100 70 90 144 84 78 103 103 106 84 102 119 157 171 165 262 249 274 281 284 276 277 265 261 262 261 260 267 265 263 265 262
121 118 110 103 65 52 72 68 58 59 71 96 73 126 181 120 67 64 56 66 45 73 103 268 150 227 228 236 260 277 286 273 274 280 279 267 256 259 263 268 272 258 252 250
126 127 82 67 88 96 64 147 161 62 54 94 100 94 91 113 109 57 108 355 140 134 222 160 177 250 258 268 274 285 288 290 283 262 267 262 257 256 257 233 277 280 273 267
121 67 74 115 105 54 41 55 52 355 37 53 84 115 131 156 130 170 189 157 140 147 240 147 236 266 258 25 61 334 314 300 278 254 251 253 263 254 223 292 300 290 264 258
122 117 112 69 37 45 68 25 24 45 141 168 133 174 106 126 130 97 147 138 129 249 145 191 251 246 305 335 338 333 328 329 339 313 237 247 255 265 271 277 285 282 242 235
109 66 72 24 10 39 88 38 344 5 167 158 158 93 119 111 91 84 125 148 218 114 89 224 230 192 360 350 355 0 11 11 14 37 198 225 240 261 275 273 246 209 248 206
57 54 87 104 12 268 201 190 199 35 188 152 142 115 133 142 115 141 145 233 120 337 236 234 293 105 19 342 5 30 30 32 32 28 11 306 252 244 252 221 186 204 188 177
83 83 160 214 244 52 21 6 72 82 117 126 102 70 98 76 122 191 106 47 244 221 244 222 247 142 321 319 348 11 18 17 17 24 38 40 35 200 170 167 173 177 183 184
86 160 65 237 49 352 357 23 92 125 139 98 84 108 80 181 167 162 206 184 215 225 220 188 171 312 277 264 300 331 16 26 26 29 49 105 126 142 148 161 182 197 208 206
194 277 224 195 259 165 191 219 238 170 157 157 117 146 198 208 202 208 179 208 250 306 128 162 238 226 224 237 300 339 20 22 32 37 68 104 133 167 182 184 186 192 197 198